www.pogodaiklimat.ru

Погода и климат >> Архив погоды >> Россия >> Краснодарский край >> Анапа


АРХИВ ПОГОДЫ в Анапе

Время (UTC), дата Ветер
(напр.,м/с)
 
Видим.   Явления Облачность Т
(С)
Тd
(С)
f
(%)
Тe
(С)
Тes
(С)
Комфортность P
(гПа)
Po
(гПа)
Тmin
(С)
Tmax
(С)
R
(мм)
R24
(мм)
S
(см)
00 18.03 С 1 10 км 1/0
[Ac trans]
+6.9 +4.0 82 +6 +6 тепло 1019.2 1015.4
03 18.03 СВ 2 10 км 8/0
[Ac trans]
+5.9 +3.1 82 +4 +4 по сезону 1020.3 1016.4 +5.2
06 18.03 штиль 0 10 км 3/0
[Ac trans]
+8.7 +4.0 72 +8 +13 тепло 1022.3 1018.5
09 18.03 Ю 5 10 км 4/0 600 м
[Sc]
+10.2 +5.5 73 +7 +12 тепло 1023.1 1019.3
12 18.03 Ю 3 20 км 6/3 600 м
[Sc Ac trans]
+10.5 +5.2 70 +9 +12 тепло 1023.5 1019.7
15 18.03 Ю 3 20 км 3/3 600 м
[Sc]
+9.3 +4.9 74 +7 +7 тепло 1023.6 1019.8 +10.9
18 18.03 штиль 0 10 км 1/0
[Ac trans]
+6.8 +4.2 83 +6 +6 тепло 1024.5 1020.6
21 18.03 СВ 2 10 км ясно +5.6 +3.5 86 +3 +3 по сезону 1024.2 1020.3
00 19.03 СВ 2 4000 м дымка ясно +3.8 +2.3 90 +1 +1 по сезону 1024.0 1020.1
03 19.03 В 3 10 км ясно +6.3 +1.8 73 +3 +3 по сезону 1023.8 1019.9 +3.6
06 19.03 В 4 20 км ясно +9.0 +2.9 66 +6 +9 тепло 1024.0 1020.2
09 19.03 Ю 5 20 км ясно +10.8 +6.7 76 +8 +14 тепло 1023.8 1020.0
12 19.03 Ю 7
{10}
20 км ясно +10.5 +7.1 79 +7 +9 по сезону 1023.2 1019.4
15 19.03 Ю 3 10 км ясно +9.5 +6.6 82 +7 +7 тепло 1022.8 1019.0 +11.0
18 19.03 СВ 1 10 км ясно +7.8 +6.2 90 +7 +7 тепло 1023.3 1019.4
21 19.03 СВ 6-10
{10}
10 км ясно +7.0 +4.4 84 +3 +3 по сезону 1022.2 1018.3
00 20.03 СВ 4
{11}
10 км 3/0
[Ci fib]
+5.4 +3.5 88 +1 +1 по сезону 1021.4 1017.6
03 20.03 СВ 3 10 км ясно +4.2 +2.6 89 0 0 по сезону 1021.1 1017.2 +4.2
06 20.03 СВ 6 20 км ясно +6.6 +3.3 79 +2 +4 по сезону 1021.2 1017.4 +4.1
09 20.03 СВ 4 20 км ясно +12.1 +3.8 57 +10 +18 тепло 1020.5 1016.7
12 20.03 СВ 4 20 км ясно +14.8 +3.6 47 +14 +19 тепло 1020.0 1016.3
15 20.03 СВ 4 20 км ясно +14.5 +4.4 51 +13 +14 тепло 1020.4 1016.6 +15.4
18 20.03 С 2 10 км ясно +9.6 +5.3 75 +8 +8 тепло 1021.9 1018.1
21 20.03 СВ 4 10 км ясно +8.2 +3.5 72 +5 +5 тепло 1022.4 1018.5
00 21.03 СВ 3 10 км ясно +6.6 +2.8 77 +4 +4 по сезону 1022.8 1018.9
03 21.03 С 2 10 км ясно +4.7 +2.6 86 +2 +2 по сезону 1024.1 1020.2 +4.7
06 21.03 Ю 3 10 км ясно +8.9 +6.0 82 +6 +10 тепло 1025.2 1021.4 +4.7
09 21.03 ЮЗ 5 10 км 9/8 600 м
[Sc Cc]
+9.9 +6.7 80 +7 +8 по сезону 1025.9 1022.1
12 21.03 СЗ 3 10 км 10/0
[Ac und]
+9.6 +5.5 76 +7 +9 по сезону 1025.9 1022.1
15 21.03 С 2 10 км 10/1 600 м
[Sc Ac und]
+8.5 +4.7 77 +7 +7 по сезону 1025.8 1022.0 +10.5
18 21.03 штиль 0 10 км 9/0
[Ac trans]
+7.6 +1.9 67 +7 +7 тепло 1026.7 1022.9
21 21.03 ЮЗ 2 10 км 9/0
[Ci]
+7.9 +2.3 68 +6 +6 тепло 1026.4 1022.6
03 22.03 СЗ 2 10 км 9/0
[Ac trans]
+7.1 +2.8 74 +5 +5 по сезону 1025.3 1021.4 +6.9
06 22.03 С 1 10 км 9/9 600 м
[Sc]
+7.2 +2.6 73 +6 +7 по сезону 1026.2 1022.4 +6.8
09 22.03 З 2 20 км 8/0
[Ci sp]
+9.8 +3.1 63 +9 +18 тепло 1025.9 1022.1
12 22.03 ЮЗ 3 20 км 8/0
[Ac trans]
+9.4 +3.1 65 +7 +11 по сезону 1024.5 1020.7
15 22.03 Ю 5 10 км 10/0
[Ac As]
+8.2 +3.4 72 +5 +5 по сезону 1022.4 1018.6 +9.8
18 22.03 Ю 8-12
{12}
10 км 8/0
[Ac trans]
+8.5 +6.1 85 +4 +4 по сезону 1021.1 1017.3
21 22.03 ЮЗ 10-12
{13}
4000 м дымка 9/0
[Ac trans]
+8.9 +7.3 90 +4 +4 по сезону 1018.8 1015.0
00 23.03 С 2
{14}
10 км {ливн. осадки} 10/10 300 м
[Cb cap]
+5.8 +3.4 85 +3 +3 по сезону 1018.3 1014.4
03 23.03 СЗ 2 10 км {ливн. осадки} 8/8 600 м
[Sc]
+5.7 +1.0 72 +3 +3 по сезону 1017.1 1013.3 +5.2 3
06 23.03 С 3 20 км {ливн. осадки} 3/3 600 м
[Sc]
+7.1 -0.9 57 +5 +7 по сезону 1016.5 1012.7
09 23.03 З 4 20 км 8/8 300 м
[Cb cap]
+9.1 +1.2 58 +7 +8 по сезону 1015.1 1011.3
12 23.03 СЗ 3
{15}
20 км {ливн. осадки} 8/8 300 м
[Cb cap]
+7.7 -0.6 56 +5 +7 по сезону 1015.4 1011.6
15 23.03 С 3 10 км 9/9 300 м
[Cb cap]
+5.3 -1.0 64 +2 +2 прохладно 1016.4 1012.6 +9.4 1
18 23.03 С 3 10 км ясно +4.6 -3.2 57 +2 +2 по сезону 1017.7 1013.9
21 23.03 С 4 10 км 8/8 600 м
[Sc]
+4.3 -0.1 73 0 0 по сезону 1017.9 1014.0
00 24.03 С 2 10 км 8/8 300 м
[Cb cap]
+3.5 +0.2 79 +1 +1 по сезону 1017.6 1013.8
03 24.03 С 3 10 км 10/10 300 м
[Cb cap]
+4.6 -0.7 68 +1 +1 по сезону 1017.8 1013.9 +3.2
06 24.03 С 2 10 км 9/5 300 м
[Cb cap Ac trans]
+5.3 -0.2 68 +3 +4 по сезону 1018.8 1015.0
09 24.03 СЗ 4 20 км 9/9 300 м
[Cb cap]
+6.1 -2.7 53 +3 +4 по сезону 1019.0 1015.2
12 24.03 СЗ 2 20 км 10/10 600 м
[Cb cap]
+6.0 -3.7 50 +4 +4 по сезону 1018.6 1014.8
15 24.03 З 2 20 км 6/1 600 м
[Sc Ci fib]
+6.0 -3.4 51 +4 +4 по сезону 1018.8 1014.9 +8.5
18 24.03 штиль 0 10 км 3/0
[Ci fib]
+4.1 -3.2 59 +4 +4 по сезону 1019.6 1015.7
21 24.03 Ю 4 10 км 6/0
[Ci fib]
+5.6 -0.3 66 +2 +2 по сезону 1019.6 1015.7

 

Местоположение метеостанции Анапа (Краснодарский край, Россия): широта 44.88 долгота 37.28 высота над уровнем моря 32 м.

В архиве по умолчанию представлена погода в Анапе за последнюю неделю. Архивные данные за месяц целиком и за предыдущие месяцы, начиная с января 2011 года, Вы можете получить, выбрав интересующий диапазон дат из раскрывающегося списка и нажав кнопку "Ввод!".


*Определитесь, кто Вы:
робот инопланетянин человек

Внимание! Время в таблицах - всемирное. Для получения местного времени необходимо прибавить поправку, которая равна 3 ч.

Смотрите также архив погоды в соседних городах и на ближайших метеорологических станциях:

Погода в Новороссийске (Краснодарский край, Россия) (48 км)
Погода в Темрюке (Краснодарский край, Россия) (50 км)
Погода в Крымске (Краснодарский край, Россия) (57 км)
Погода в Тамани (Краснодарский край, Россия) (58 км)
Погода в Геленджике (Краснодарский край, Россия) (72 км)
Погода в Опасном (Крым, Россия) (75 км)
Погода в Славянске-на-Кубани (Краснодарский край, Россия) (80 км)
Погода в Керчи (Крым, Россия) (86 км)
Погода в Джубге (Краснодарский край, Россия) (129 км)
Погода в Мысовом (Крым, Россия) (131 км)

Пояснения к столбцам:

Ветер - указаны скорость ветра в м/с - средняя за 10 мин, порывы в срок и между сроками (в фигурных скобках) и направление, откуда дует ветер: С - северный, СВ - северо-восточный, В - восточный, ЮВ - юго-восточный, Ю - южный, ЮЗ - юго-западный, З - западный, СЗ - северо-западный.
Видимость - горизонтальная дальность видимости в метрах или километрах. При видимости от 1 до 10 км при отсутствии осадков обычно наблюдается дымка, при ухудшении видимости до 1 км и менее - туман. В сухую погоду видимость может ухудшаться дымом, пылью или мглою.
Явления - указаны атмосферные явления, наблюдавшиеся в срок или в последний час перед сроком; фигурными скобками обозначены явления, наблюдавшиеся между сроками (за 1-3 часа до срока); квадратными скобками обозначены град или гололедные отложения с указанием их диаметра в мм.
Облачность - указаны через наклонную черту общая и нижняя облачность в баллах и высота нижней границы облаков в метрах; квадратными скобками обозначены формы облаков: Ci - перистые, Cs - перисто-слоистые, Cc - перисто-кучевые, Ac - высококучевые, As - высокослоистые, Sc - слоисто-кучевые, Ns - слоисто-дождевые, Cu - кучевые, Cb - кучево-дождевые. Подробнее классификацию облаков см. в Атласе облаков (PDF).
T - Температура воздуха - температура, измеренная на высоте 2 м над землей.
Td - Температура точки росы - температура, при понижении до которой содержащийся в воздухе водяной пар достигнет насыщения.
f - Относительная влажность воздуха - влажноcть воздуха, измеренная на высоте 2 м над землей.
Te - Эффективная температура - температура, которую ощущает одетый по сезону человек в тени. Характеристика душности погоды. При расчете учитывается влияние влажности воздуха и скорости ветра на теплоощущения человека.
Tes - Эффективная температура на солнце - температура, которую ощущает человек, с поправкой на солнечный нагрев. Характеристика знойности погоды. Зависит от высоты солнца над горизонтом, облачности и скорости ветра. Ночью, в пасмурную погоду, а также при ветре 12 м/с и более поправка равна нулю.
P - Атмосферное давление - приведенное к уровню моря атмосферное давление.
Po - Атмосферное давление - измеренное на уровне метеостанции атмосферное давление.
Tmin - Минимальная температура - минимум температуры воздуха на высоте 2 м над землей.
Tmax - Максимальная температура - максимум температуры воздуха на высоте 2 м над землей.
R - Количество осадков - Количество выпавших осадков за период времени, мм. При наведении курсора мыши на число - период времени, за который выпало указанное количество осадков.
R24 - Количество осадков - Количество выпавших осадков за 24 часа, мм.
S - Снежный покров - Высота снежного покрова, см. При наведении курсора мыши на число - состояние снежного покрова и степень покрытия местности в баллах.